This demonstration page uses our WeatherBlox Daily Observations layout. Learn more.

Left ArrowRight Arrow

40.92945, -100.16068

Hourly Observations for April 6, 2020

Temp ( °F °C ) Dew Point ( °F °C ) Humidity (%) Winds ( mph kmh ) Pressure ( in mb ) Visibility ( mi km ) Precip ( " mm )
12:15 am 00:15 Clear 43 6 41 5 93 93 ESE 6 9 29.88 1012 7 11 0.00 0.00
12:35 am 00:35 Clear 42 5.6 40 4.7 94 94 ESE 7 11 29.88 1012 7 11 0.00 0.00
12:55 am 00:55 Clear 42 5.6 41 4.8 95 95 SE 7 11 29.87 1012 7 11 0.00 0.00
1:15 am 01:15 Clear 41 5.1 40 4.5 96 96 ESE 6 9 29.88 1012 7 11 0.00 0.00
1:35 am 01:35 Clear with Mist and Fog 40 4.2 39 3.7 97 97 E 6 9 29.88 1012 5 8 0.00 0.00
1:55 am 01:55 Clear with Mist and Fog 38 3.6 38 3.5 99 99 E 6 9 29.88 1012 5 8 0.00 0.00
2:15 am 02:15 Partly Cloudy with Mist and Fog 39 3.7 38 3.6 99 99 ESE 6 9 29.87 1012 4 6 0.00 0.00
2:35 am 02:35 Mostly Cloudy with Mist and Fog 40 4.3 40 4.3 100 100 E 6 9 29.86 1011 4 6 0.00 0.00
2:55 am 02:55 Cloudy with Mist and Fog 41 5.2 41 5.1 99 99 E 6 9 29.85 1011 4 6 0.00 0.00
3:15 am 03:15 Cloudy with Mist and Fog 43 6 42 5.8 99 99 E 6 9 29.84 1010 4 6 0.00 0.00
3:35 am 03:35 Cloudy with Mist and Fog 43 6.2 43 6 99 99 E 5 7 29.83 1010 4 6 0.00 0.00
3:55 am 03:55 Cloudy with Mist and Fog 44 6.8 44 6.6 99 99 E 7 11 29.81 1010 4 6 0.00 0.00
4:15 am 04:15 Cloudy with Mist and Fog 45 7.4 45 7.2 99 99 E 5 7 29.81 1009 5 8 0.00 0.00
4:35 am 04:35 Cloudy with Mist and Fog 46 8 46 7.7 98 98 ESE 5 7 29.80 1009 5 8 0.00 0.00
4:55 am 04:55 Cloudy 47 8.4 46 8 97 97 ESE 6 9 29.80 1009 7 11 0.00 0.00
5:15 am 05:15 Cloudy 48 8.7 47 8.3 97 97 ESE 5 7 29.78 1009 7 11 0.00 0.00
5:35 am 05:35 Cloudy 48 9 47 8.5 97 97 E 5 7 29.78 1008 7 11 0.00 0.00
5:55 am 05:55 Cloudy 48 9 48 8.7 98 98 E 3 6 29.78 1008 7 11 0.00 0.00
6:15 am 06:15 Cloudy 49 9.2 48 9 99 99 E 5 7 29.78 1008 7 11 0.00 0.00
6:35 am 06:35 Cloudy 49 9.3 48 9 98 98 E 5 7 29.77 1008 7 11 0.00 0.00
6:55 am 06:55 Cloudy 49 9.5 49 9.2 98 98 E 3 6 29.77 1008 7 11 0.00 0.00
7:15 am 07:15 Cloudy 50 9.8 49 9.5 98 98 E 3 6 29.77 1008 10 16 0.00 0.00
7:35 am 07:35 Cloudy 50 9.8 49 9.5 98 98 ESE 5 7 29.78 1009 7 11 0.00 0.00
7:55 am 07:55 Cloudy 50 9.9 49 9.5 97 97 E 5 7 29.78 1009 7 11 0.00 0.00
8:15 am 08:15 Cloudy 50 10 49 9.7 98 98 ESE 3 6 29.78 1009 7 11 0.00 0.00
8:35 am 08:35 Cloudy 51 10.6 50 10 96 96 ESE 5 7 29.78 1008 10 16 0.00 0.00
8:55 am 08:55 Cloudy 52 11 50 10.2 95 95 SE 3 6 29.77 1008 10 16 0.00 0.00
9:15 am 09:15 Cloudy 53 11.5 51 10.5 94 94 S 3 6 29.77 1008 10 16 0.00 0.00
9:35 am 09:35 Cloudy 54 12 51 10.8 92 92 Calm 29.77 1008 10 16 0.00 0.00
9:55 am 09:55 Cloudy 54 12.3 51 10.8 91 91 Calm 29.77 1008 10 16 0.00 0.00
10:35 am 10:35 Cloudy 55 13 51 10.8 87 87 Calm 29.76 1008 10 16 0.00 0.00
11:55 am 11:55 Cloudy 58 14.4 51 10.8 79 79 Calm 29.76 1008 10 16 0.00 0.00
12:15 pm 12:15 Cloudy 58 14.7 51 10.7 77 77 Calm 29.75 1007 10 16 0.00 0.00
12:35 pm 12:35 Cloudy 60 15.3 52 10.9 75 75 Calm 29.74 1007 10 16 0.00 0.00
12:55 pm 12:55 Cloudy 61 16.2 52 11.2 72 72 SSW 6 9 29.73 1007 10 16 0.00 0.00
1:15 pm 13:15 Partly Cloudy 62 16.6 53 11.4 72 72 Calm 29.72 1007 10 16 0.00 0.00
1:35 pm 13:35 Sunny 62 16.8 53 11.4 71 71 SW 5 7 29.71 1006 10 16 0.00 0.00
1:55 pm 13:55 Sunny 63 17.3 52 11.3 68 68 Calm 29.70 1006 10 16 0.00 0.00
2:15 pm 14:15 Sunny 65 18.1 54 12.1 68 68 Calm 29.69 1005 10 16 0.00 0.00
2:35 pm 14:35 Sunny 66 18.8 54 12.3 66 66 Calm 29.67 1005 10 16 0.00 0.00
2:55 pm 14:55 Sunny 67 19.4 54 12.1 63 63 ENE 5 7 29.66 1004 10 16 0.00 0.00
3:15 pm 15:15 Sunny 68 19.9 53 11.7 59 59 Calm 29.65 1004 10 16 0.00 0.00
3:35 pm 15:35 Sunny 69 20.4 54 12.2 59 59 E 3 6 29.64 1004 10 16 0.00 0.00
3:55 pm 15:55 Sunny 70 21.1 55 12.5 58 58 E 3 6 29.63 1004 10 16 0.00 0.00
4:15 pm 16:15 Sunny 71 21.4 53 11.4 53 53 Calm 29.63 1003 10 16 0.00 0.00
4:35 pm 16:35 Sunny 72 22 53 11.4 51 51 Calm 29.62 1003 10 16 0.00 0.00
4:55 pm 16:55 Sunny 73 22.7 52 11.2 48 48 Calm 29.60 1002 10 16 0.00 0.00
5:15 pm 17:15 Sunny 73 23 54 12.1 50 50 Calm 29.60 1002 10 16 0.00 0.00
5:35 pm 17:35 Sunny 75 23.9 51 10.8 44 44 SSW 7 11 29.59 1002 10 16 0.00 0.00
5:55 pm 17:55 Sunny 74 23.6 51 10.6 44 44 Calm 29.59 1002 10 16 0.00 0.00
6:15 pm 18:15 Sunny 75 24 51 10.4 42 42 S 3 6 29.59 1002 10 16 0.00 0.00
6:35 pm 18:35 Sunny 74 23.6 53 11.5 47 47 S 3 6 29.59 1002 10 16 0.00 0.00
6:55 pm 18:55 Sunny 74 23.1 51 10.5 45 45 SSE 8 13 29.60 1002 10 16 0.00 0.00
7:15 pm 19:15 Sunny 72 22.4 51 10.7 48 48 S 7 11 29.60 1002 10 16 0.00 0.00
7:35 pm 19:35 Sunny 70 21.1 50 10.2 50 50 S 7 11 29.61 1003 10 16 0.00 0.00
7:55 pm 19:55 Sunny 67 19.7 50 9.9 53 53 SE 5 7 29.63 1003 10 16 0.00 0.00
8:15 pm 20:15 Clear 69 20.4 49 9.2 49 49 SE 3 6 29.63 1003 10 16 0.00 0.00
8:35 pm 20:35 Clear 66 18.7 48 9 53 53 SSE 7 11 29.64 1004 10 16 0.00 0.00
8:55 pm 20:55 Clear 66 18.9 48 9.1 53 53 SE 5 7 29.65 1004 10 16 0.00 0.00
9:15 pm 21:15 Clear 65 18.1 48 9 56 56 SE 5 7 29.66 1004 10 16 0.00 0.00
9:35 pm 21:35 Clear 64 17.5 48 9 58 58 SE 5 7 29.66 1005 10 16 0.00 0.00
9:55 pm 21:55 Clear 60 15.3 48 8.7 65 65 ESE 5 7 29.69 1006 10 16 0.00 0.00
10:15 pm 22:15 Clear 60 15.8 48 8.9 64 64 SE 6 9 29.69 1005 10 16 0.00 0.00
10:35 pm 22:35 Clear 56 13.4 47 8.2 71 71 ESE 3 6 29.71 1006 10 16 0.00 0.00
10:55 pm 22:55 Clear 49 9.5 45 7 85 85 ESE 5 7 29.75 1007 10 16 0.00 0.00
11:15 pm 23:15 Clear 53 11.5 46 7.7 78 78 SE 5 7 29.73 1007 10 16 0.00 0.00
11:35 pm 23:35 Clear 50 9.9 45 7 82 82 Calm 29.73 1007 10 16 0.00 0.00
11:55 pm 23:55 Clear 48 9 44 6.8 86 86 Calm 29.75 1007 10 16 0.00 0.00

Powered by AerisWeather